TimeGMT,TemperatureF,Dew PointF,Humidity,Sea Level PressureIn,VisibilityMPH,Wind Direction,Wind SpeedMPH,Gust SpeedMPH,PrecipitationIn,Events,Conditions,WindDirDegrees,DateUTC
12:00 AM,38,36,92,29.66,,NW,15.7,,,,,320,2012-12-07 00:00:00
6:00 AM,39,32,66,29.86,19,NW,13.4,,,,Partly Cloudy,310,2012-12-07 06:00:00
8:00 AM,39.2,33.8,81,29.89,6.2,NNW,17.3,-,N/A,,Partly Cloudy,330,2012-12-07 08:00:00
8:30 AM,41.0,33.8,76,29.89,6.2,NW,13.8,-,N/A,,Scattered Clouds,310,2012-12-07 08:30:00
9:00 AM,41.0,35.6,81,29.89,6.2,NW,12.7,-,N/A,Rain,Light Rain Showers,310,2012-12-07 09:00:00
9:30 AM,39.2,37.4,93,29.92,6.2,NW,18.4,-,N/A,,Partly Cloudy,320,2012-12-07 09:30:00
10:00 AM,41.0,37.4,87,29.92,6.2,NNW,21.9,-,N/A,,Partly Cloudy,330,2012-12-07 10:00:00
10:30 AM,42.8,37.4,81,29.92,6.2,NNW,23.0,-,N/A,,Scattered Clouds,330,2012-12-07 10:30:00
11:00 AM,42.8,37.4,81,29.95,6.2,NNW,20.7,34.5,N/A,,Partly Cloudy,330,2012-12-07 11:00:00
11:30 AM,42.8,37.4,81,29.95,6.2,NNW,23.0,36.8,N/A,Rain,Light Rain Showers,330,2012-12-07 11:30:00
12:00 PM,43,36,68,30.01,22,NNW,17.9,,,Rain,Light Rain Showers,330,2012-12-07 12:00:00
12:00 PM,42.8,35.6,76,29.98,6.2,NNW,18.4,-,N/A,,Partly Cloudy,330,2012-12-07 12:00:00
12:30 PM,44.6,37.4,76,30.01,6.2,NNW,17.3,28.8,N/A,,Scattered Clouds,340,2012-12-07 12:30:00
1:00 PM,42.8,35.6,76,30.01,6.2,NNW,19.6,31.1,N/A,,Partly Cloudy,330,2012-12-07 13:00:00
1:30 PM,44.6,37.4,76,30.01,6.2,North,15.0,27.6,N/A,,Scattered Clouds,350,2012-12-07 13:30:00
2:00 PM,44.6,37.4,76,30.04,6.2,NNW,12.7,-,N/A,,Scattered Clouds,340,2012-12-07 14:00:00
2:30 PM,42.8,35.6,76,30.04,6.2,NNW,10.4,-,N/A,,Partly Cloudy,340,2012-12-07 14:30:00
3:00 PM,42.8,35.6,76,30.06,6.2,NNW,9.2,-,N/A,,Scattered Clouds,340,2012-12-07 15:00:00
3:30 PM,42.8,35.6,76,30.06,6.2,NW,8.1,-,N/A,,Partly Cloudy,320,2012-12-07 15:30:00
4:00 PM,41.0,35.6,81,30.09,6.2,NW,10.4,-,N/A,,Partly Cloudy,320,2012-12-07 16:00:00
4:30 PM,41.0,35.6,81,30.09,6.2,NNW,11.5,-,N/A,,Partly Cloudy,330,2012-12-07 16:30:00
5:00 PM,39.2,37.4,93,30.12,6.2,NNW,11.5,25.3,N/A,,Partly Cloudy,340,2012-12-07 17:00:00
6:00 PM,39,36,84,30.19,16,NW,8.9,,,,Partly Cloudy,320,2012-12-07 18:00:00